| time (UTC) | temp C | wind direction | speed KPH | gust KPH | rain 1hr cm | rain 24hr cm | rain mn cm | humidity % | barometer mb |
| 20260507112140 | 18 | 190 | 19.3 | 0.0 | 0.00 | 0.00 | 0.00 | 52 | |
| 20260507102324 | 18 | 190 | 14.5 | 0.0 | 0.00 | 0.00 | 0.00 | 52 | |
| 20260507092124 | 17 | 160 | 8.0 | 0.0 | 0.00 | 0.00 | 0.00 | 55 | |
| 20260507082123 | 17 | 280 | 14.5 | 0.0 | 0.00 | 0.00 | 0.00 | 63 | |
| 20260507072124 | 17 | 280 | 22.5 | 0.0 | 0.00 | 0.00 | 0.00 | 63 | |
| 20260507062123 | 16 | 300 | 3.2 | 0.0 | 0.00 | 0.00 | 0.00 | 67 | |
| 20260507052123 | 13 | 130 | 8.0 | 0.0 | 0.00 | 0.00 | 0.00 | 76 | |
| 20260507042325 | 12 | 190 | 8.0 | 0.0 | 0.00 | 0.00 | 0.00 | 87 | |
| 20260507032123 | 12 | 280 | 3.2 | 0.0 | 0.00 | 0.00 | 0.00 | 87 | |
| 20260507022121 | 13 | 210 | 11.3 | 0.0 | 0.00 | 0.00 | 0.00 | 76 | |
| 20260507012222 | 15 | 200 | 11.3 | 0.0 | 0.00 | 0.00 | 0.00 | 72 | |
| 20260507002122 | 16 | 160 | 22.5 | 0.0 | 0.00 | 0.00 | 0.00 | 67 | |
| 20260506232124 | 17 | 150 | 14.5 | 0.0 | 0.00 | 0.00 | 0.00 | 63 | |
| 20260506222355 | 16 | 130 | 14.5 | 0.0 | 0.00 | 0.00 | 0.00 | 67 | |
| 20260506212138 | 17 | 120 | 11.3 | 0.0 | 0.00 | 0.00 | 0.00 | 59 | |
| 20260506202155 | 17 | 130 | 14.5 | 0.0 | 0.00 | 0.00 | 0.00 | 55 | |
| 20260506192340 | 18 | 140 | 14.5 | 0.0 | 0.00 | 0.00 | 0.00 | 55 | |
| 20260506182228 | 20 | 140 | 19.3 | 0.0 | 0.00 | 0.00 | 0.00 | 52 | |
| 20260506172153 | 22 | 150 | 29.0 | 0.0 | 0.00 | 0.00 | 0.00 | 40 | |
| 20260506162354 | 23 | 150 | 29.0 | 0.0 | 0.00 | 0.00 | 0.00 | 38 | |
| 20260506152211 | 23 | 130 | 32.2 | 0.0 | 0.00 | 0.00 | 0.00 | 44 | |
| 20260506142139 | 23 | 150 | 22.5 | 0.0 | 0.00 | 0.00 | 0.00 | 41 | |
| 20260506132139 | 22 | 150 | 25.7 | 0.0 | 0.00 | 0.00 | 0.00 | 43 | |
| 20260506122138 | 23 | 180 | 22.5 | 0.0 | 0.00 | 0.00 | 0.00 | 41 |